Regional Weather Roundup
Issued by NWS

Home | Current Version | Previous Version | Text Only | Print | Product List | Glossary On
Versions: 1 2 3 4 5 6 7 8 9 10 11 12 13 14 15 16 17 18 19 20 21 22 23 24 25 26 27 28 29 30 31 32 33 34 35 36 37 38 39 40 41 42 43 44 45 46 47 48 49 50
000
ASCA44 KEWX 221920
RWRMX

LATIN AMERICA AND CARIBBEAN REGIONAL WEATHER ROUNDUP
NATIONAL WEATHER SERVICE AUSTIN/SAN ANTONIO TX
200 PM CDT SAT JUL 22 2017

NOTE: "FAIR" INDICATED FEW OR NO CLOUDS BELOW 12,000 FEET WITH NO
SIGNIFICANT WEATHER AND/OR OBSTRUCTIONS TO VISIBILITY.

BAJA CALIFORNIA

CITY           SKY/WX    TMP DP  RH WIND       PRES   REMARKS
LORETO         PTSUNNY   91  72  52 NE12      29.85F HX  98
LA PAZ         MOSUNNY   95  57  28 NW13      29.87F HX  94
MEXICALI       SUNNY     99  66  34 S8        29.82F HX 102
S.J. DEL CABO  SUNNY     93  61  33 SE14      29.89F HX  93
TIJUANA        SUNNY     77  64  65 W13       29.94F

NORTHWESTERN MEXICO

CITY           SKY/WX    TMP DP  RH WIND       PRES   REMARKS
CULIACAN       PTSUNNY   93  70  46 CALM      29.86F HX  99
DURANGO        MOSUNNY   77  55  47 NW3       30.25F
GUAYMAS        CLOUDY    90  81  74 E7        29.84F HX 108
HERMOSILLO     CLOUDY    81  70  69 E14       29.97S
CD. JUAREZ     MOSUNNY   82  63  51 SW6       30.09F
LOS MOCHIS     MOSUNNY   93  68  43 SE15      29.89F HX  97
OBREGON        PTSUNNY   93  68  43 E10       29.88F HX  97

NORTHEASTERN MEXICO

CITY           SKY/WX    TMP DP  RH WIND       PRES   REMARKS
CHIHUAHUA      PTSUNNY   81  63  54 N6        30.14F
MATAMOROS      PTSUNNY   93  73  52 S14G26    29.95F HX 102
MONCLOVA         N/A    N/A N/A N/A MISG        N/A
MONTERREY      MOSUNNY   93  63  36 E14       29.93F HX  94
NUEVO LAREDO   SUNNY     97  68  38 E9        29.91F HX 101
PIEDRAS NEGRAS MOSUNNY   97  73  46 SE12      29.94F HX 107
REYNOSA        MOSUNNY   95  63  34 E9G21     29.92F HX  96
SALTILLO       PTSUNNY   90  66  45 N9        30.18F HX  92
TORREON        MOSUNNY   90  59  35 NE3       30.08F
CD. VICTORIA   SUNNY     91  55  29 S23       29.96F

WESTERN MEXICO

CITY           SKY/WX    TMP DP  RH WIND       PRES   REMARKS
AGUASCALIENTES MOSUNNY   77  54  44 N5        30.28F
COLIMA         MOSUNNY   84  73  70 SW7       30.01F HX  91
DEL BAJIO      PTSUNNY   77  59  53 S9        30.31F
GUADALAJARA    PTSUNNY   75  57  53 N6        30.20F
MANZANILLO     MOSUNNY   91  81  70 SW17      29.85F HX 110
MAZATLAN       MOSUNNY   90  73  58 W7        29.88F HX  98
P. VALLARTA    PTSUNNY   88  72  58 W6        29.86F HX  94
URUAPAN        MOSUNNY   77  64  65 SW12      30.16F
ZACATECAS        N/A    N/A N/A N/A MISG        N/A

CENTRAL MEXICO

CITY           SKY/WX    TMP DP  RH WIND       PRES   REMARKS
CUERNAVACA     MOSUNNY   79  57  47 NW5       30.13
MEXICO CITY    MOSUNNY   72  50  46 NE8       30.33F
MORELIA        PTSUNNY   73  61  64 W3        30.25F
POZA RICA      MOSUNNY   91  75  59 S7        29.99F HX 102
PUEBLA         MOSUNNY   73  46  38 CALM      30.34F
QUERETARO      PTSUNNY   75  57  53 E12       30.32F
S. LUIS POTOSI MOSUNNY   75  50  41 E14       30.27F
TAMPICO        MOSUNNY   88  75  66 SE12      29.98F HX  97
TOLUCA         PTSUNNY   72  50  46 NE7       30.38F

SOUTHERN MEXICO

CITY           SKY/WX    TMP DP  RH WIND       PRES   REMARKS
ACAPULCO       CLOUDY    88  79  74 S6        29.88S HX 102
B. DE HUATULCO CLOUDY   N/A N/A N/A E12       29.95R
OAXACA         PTSUNNY   77  57  50 N6        30.21F
P. ESCONDIDO   PTSUNNY   82  75  78 SE9       30.00S
VERACRUZ       MOSUNNY   88  73  62 E10       29.96F HX  96
ZIHUATANEJO    PTSUNNY   91  81  70 SW8       29.85F HX 110

YUCATAN PENINSULA

CITY           SKY/WX    TMP DP  RH WIND       PRES   REMARKS
CAMPECHE       PTSUNNY   90  79  70 E12G23    29.97F HX 105
CANCUN         PTSUNNY   90  77  66 NE12      30.04S HX 102
CHETUMAL       MOSUNNY   91  75  59 SE12      29.99F HX 102
CD. DEL CARMEN CLOUDY   N/A N/A N/A SE14      29.98S
COZUMEL        PTSUNNY   88  79  74 NE14      30.01F HX 102
MERIDA         PTSUNNY   95  66  38 SE14      30.01F HX  98
MINATITLAN     MOSUNNY   84  73  70 N12       29.92F HX  91
TAPACHULA      PTSUNNY   88  77  70 W2        29.89F HX 100
TUX. GUTIERREZ CLOUDY    90  72  55 N2        29.97F HX  96
VILLAHERMOSA   PTSUNNY   90  75  62 E10       29.95F HX 100

CENTRAL AMERICA

CITY           SKY/WX    TMP DP  RH WIND       PRES   REMARKS
BELIZE CITY    PTSUNNY   90  81  74 E9        29.98S HX 108
MANAGUA        PTCLDY    90  72  55 E16       29.83F HX  96

CARIBBEAN

CITY           SKY/WX    TMP DP  RH WIND       PRES   REMARKS
ARUBA          MOSUNNY   91  77  62 E23       29.86S HX 105
CURACAO        MOSUNNY   88  77  70 E14       29.89F HX 100
KINGSTON       MOSUNNY   91  77  62 SE26      29.89F HX 105
NASSAU         PTSUNNY   91  75  59 E9        30.08F HX 102
SAN JUAN       MOSUNNY   88  79  74 E18       30.00  HX 102
SANTO DOMINGO  PTSUNNY   86  79  79 SE5       29.97S HX  99
ST. CROIX      MOSUNNY   90  79  70 E12       30.00F HX 105
ST. KITTS      MOSUNNY   86  79  79 NE10      29.97F HX  99
ST. MAARTEN    MOSUNNY   88  79  74 E8        30.00S HX 102
ST. THOMAS     SUNNY     88  79  74 SE14      30.00F HX 102

$$





USA.gov is the U.S. government's official web portal to all federal, state and local government web resources and services.